Home > Weather > Cedar Rapids > Past weeks

Flag for USA Past Weather in Cedar Rapids, Iowa, USA — Yesterday and Last 2 Weeks

Now
83 °F

Passing clouds.


Feels Like: 86 °F
Forecast: 64 / 86 °F
Wind: 6 mph from South

Location: Cedar Rapids Municipal Airport

Current Time: Jul 27, 2016 at 2:22:55 PM

Latest Report: Jul 27, 2016 at 1:52 PM


Visibility: 10 mi

Pressure: 29.97 "Hg

Humidity: 63%

Dew Point: 69 °F

Location of Cedar RapidsLocation

Past Weather in Cedar Rapids — Graph

°F

Cedar Rapids Temperature Yesterday

Maximum temperature yesterday: 84 °F (at 2:52 PM)
Minimum temperature yesterday: 62 °F (at 5:52 AM)
Average temperature yesterday: 74 °F

High & Low Weather Summary for the Past Weeks

 TemperatureHumidityPressure
High92 °F (Jul 21, 1:52 PM)100% (Jul 12, 8:52 PM)30.26 "Hg (Jul 12, 8:52 PM)
Low55 °F (Jul 16, 5:00 AM)54% (Jul 14, 4:52 PM)29.76 "Hg (Jul 13, 4:52 PM)
Average75 °F87%29.99 "Hg
* Reported Jul 12 12:52 PM — Jul 27 12:52 PM, Cedar Rapids, Weather by CustomWeather, © 2016

Note: Actual official high and low records may vary slightly from our data, if they occured in-between our weather recording intervals... More about our weather records

Advertising

Cedar Rapids Weather History for the Previous 24 Hours

Scroll right to see more
 ConditionsComfort  
Time TempWeatherWind HumidityBarometerVisibility
12:52 PM
Wed, Jul 27
83 °FPassing clouds.8 mph65%29.98 "Hg10 mi
11:52 AM82 °FPassing clouds.6 mph67%29.99 "Hg10 mi
10:52 AM81 °FPassing clouds.6 mph67%29.99 "Hg10 mi
9:52 AM79 °FSunny.3 mph74%30.00 "Hg10 mi
8:52 AM75 °FPassing clouds.No wind90%30.01 "Hg9 mi
7:52 AM72 °FPartly sunny.No wind97%30.00 "Hg9 mi
6:52 AM65 °FPassing clouds.No wind100%29.99 "Hg8 mi
5:52 AM63 °FClear.No wind100%29.99 "Hg9 mi
4:52 AM65 °FClear.No wind100%29.99 "Hg10 mi
3:52 AM66 °FClear.No wind100%29.98 "Hg10 mi
2:52 AM66 °FClear.No wind100%29.98 "Hg10 mi
1:52 AM67 °FClear.3 mph97%29.99 "Hg10 mi
12:52 AM66 °FClear.No wind100%29.99 "Hg10 mi
11:52 PM
Tue, Jul 26
68 °FClear.No wind100%30.00 "Hg10 mi
10:52 PM70 °FClear.No wind93%29.99 "Hg10 mi
9:52 PM70 °FClear.No wind97%30.00 "Hg10 mi
8:52 PM73 °FSunny.3 mph84%30.00 "Hg10 mi
7:52 PM78 °FSunny.6 mph74%30.00 "Hg10 mi
6:52 PM82 °FSunny.5 mph65%30.01 "Hg10 mi
5:52 PM83 °FPassing clouds.7 mph59%30.01 "Hg10 mi
4:52 PM83 °FSunny.3 mph57%30.00 "Hg10 mi
3:52 PM84 °FPassing clouds.5 mph59%30.01 "Hg10 mi
2:52 PM84 °FPassing clouds.5 mph59%30.02 "Hg10 mi
Weather by CustomWeather, © 2016

See weather overviewHow to use our weather pages